SR9WXG Weather Reports


time (UTC)temp
C
wind
direction
speed
KPH
gust
KPH
rain 1hr
cm
rain 24hr
cm
rain mn
cm
humidity
%
barometer
mb
20260905164633 0 0 9.7 12.9 0.00 0.00 0.00 100 948.0
20260905162034 0 0 12.9 17.7 0.00 0.00 0.00 100 947.8
20260905160710 0 0 11.3 17.7 0.00 0.00 0.00 100 947.6
20260905160310 0 0 11.3 19.3 0.00 0.00 0.00 100 947.5
20260905155909 0 0 11.3 16.1 0.00 0.00 0.00 100 947.5
20260905155509 0 0 11.3 16.1 0.00 0.00 0.00 100 947.5
20260905155107 0 0 11.3 17.7 0.00 0.00 0.00 100 947.5
20260905154708 0 0 9.7 16.1 0.00 0.00 0.00 100 947.4
20260905154308 0 0 8.0 11.3 0.00 0.00 0.00 100 947.5
20260905153001 0 0 8.0 12.9 0.00 0.00 0.00 100 947.1
20260905152601 0 0 14.5 22.5 0.00 0.00 0.00 100 947.1
20260905152159 0 0 16.1 74.0 0.00 0.00 0.00 100 947.1
20260905151759 0 0 9.7 14.5 0.00 0.00 0.00 100 947.2
20260905151359 0 0 9.7 16.1 0.00 0.00 0.00 100 947.1
20260905150958 0 0 16.1 22.5 0.00 0.00 0.00 100 947.1
20260905150558 0 0 9.7 14.5 0.00 0.00 0.00 100 947.2
20260905150156 0 0 8.0 12.9 0.00 0.00 0.00 100 947.2
20260905145756 0 0 12.9 19.3 0.00 0.00 0.00 100 947.3
20260905145356 0 0 11.3 16.1 0.00 0.00 0.00 100 947.2
20260905144956 0 0 11.3 16.1 0.00 0.00 0.00 100 947.2
20260905144556 0 0 12.9 16.1 0.00 0.00 0.00 100 947.2
20260905144154 0 0 12.9 19.3 0.00 0.00 0.00 100 947.2
20260905143754 0 0 12.9 30.6 0.00 0.00 0.00 100 947.2
20260905143354 0 0 14.5 20.9 0.00 0.00 0.00 100 947.2
20260905142946 0 0 17.7 25.7 0.00 0.00 0.00 100 947.3
20260905142544 0 0 16.1 29.0 0.00 0.00 0.00 100 947.2
20260905142141 0 0 12.9 20.9 0.00 0.00 0.00 100 947.2
20260905141741 0 0 19.3 30.6 0.00 0.00 0.00 100 947.2
20260905141340 0 0 17.7 25.7 0.00 0.00 0.00 100 947.2
20260905140940 0 0 16.1 32.2 0.00 0.00 0.00 100 947.1
20260905140540 0 0 14.5 24.1 0.00 0.00 0.00 100 947.1
20260905140138 0 0 11.3 16.1 0.00 0.00 0.00 100 947.1
20260905135738 0 0 9.7 12.9 0.00 0.00 0.00 100 947.1
20260905135337 0 0 14.5 20.9 0.00 0.00 0.00 100 947.1
20260905134937 0 0 16.1 22.5 0.00 0.00 0.00 100 947.0
20260905134537 0 0 11.3 16.1 0.00 0.00 0.00 100 947.1
20260905134135 0 0 12.9 22.5 0.00 0.00 0.00 100 947.1
20260905133736 0 0 9.7 14.5 0.00 0.00 0.00 100 947.1
20260905133335 0 0 9.7 17.7 0.00 0.00 0.00 100 947.2
20260905132935 0 0 11.3 14.5 0.00 0.00 0.00 100 947.2
20260905132535 0 0 9.7 17.7 0.00 0.00 0.00 100 947.1
20260905132133 0 0 12.9 17.7 0.00 0.00 0.00 100 947.1
20260905131733 0 0 14.5 19.3 0.00 0.00 0.00 100 947.1
20260905131332 0 0 14.5 24.1 0.00 0.00 0.00 100 947.1
20260905130932 0 0 12.9 19.3 0.00 0.00 0.00 100 947.0
20260905130532 0 0 14.5 22.5 0.00 0.00 0.00 100 947.1
20260905130131 0 0 14.5 22.5 0.00 0.00 0.00 100 947.1
20260905125731 0 0 14.5 20.9 0.00 0.00 0.00 100 947.0
20260905125331 0 0 14.5 22.5 0.00 0.00 0.00 100 947.0
20260905124930 0 0 12.9 19.3 0.00 0.00 0.00 100 947.1
20260905124530 0 0 11.3 17.7 0.00 0.00 0.00 100 947.2
20260905124128 0 0 11.3 22.5 0.00 0.00 0.00 100 947.2
20260905123728 0 0 12.9 19.3 0.00 0.00 0.00 100 947.1
20260905123328 0 0 16.1 24.1 0.00 0.00 0.00 100 947.2
20260905122927 0 0 12.9 17.7 0.00 0.00 0.00 100 947.2
20260905122527 0 0 14.5 27.4 0.00 0.00 0.00 100 947.2
20260905122126 0 0 14.5 19.3 0.00 0.00 0.00 100 947.3
20260905121726 0 0 16.1 24.1 0.00 0.00 0.00 100 947.2
20260905121326 0 0 17.7 30.6 0.00 0.00 0.00 100 947.2
20260905120918 0 0 22.5 32.2 0.00 0.00 0.00 100 947.2
20260905120516 0 0 19.3 29.0 0.00 0.00 0.00 100 947.3
20260905120113 0 0 17.7 27.4 0.00 0.00 0.00 100 947.3
20260905115712 0 0 19.3 25.7 0.00 0.00 0.00 100 947.4
20260905115311 0 0 17.7 32.2 0.00 0.00 0.00 100 947.4
20260905114912 0 0 12.9 19.3 0.00 0.00 0.00 100 947.5
20260905114512 0 0 11.3 19.3 0.00 0.00 0.00 100 947.6
20260905114110 0 0 14.5 20.9 0.00 0.00 0.00 100 947.5
20260905113710 0 0 12.9 25.7 0.00 0.00 0.00 100 947.6
20260905113309 0 0 16.1 20.9 0.00 0.00 0.00 100 947.7
20260905112909 0 0 14.5 19.3 0.00 0.00 0.00 100 947.7
20260905112509 0 0 19.3 27.4 0.00 0.00 0.00 100 947.7
20260905112107 0 0 17.7 29.0 0.00 0.00 0.00 100 947.8
20260905111707 0 0 14.5 19.3 0.00 0.00 0.00 100 947.7
20260905111307 0 0 19.3 25.7 0.00 0.00 0.00 100 947.7
20260905110907 0 0 12.9 19.3 0.00 0.00 0.00 100 947.8
20260905110507 0 0 17.7 22.5 0.00 0.00 0.00 100 947.9
20260905110105 0 0 22.5 32.2 0.00 0.00 0.00 100 947.8
20260905105705 0 0 20.9 29.0 0.00 0.00 0.00 100 947.7
20260905105306 0 0 25.7 54.7 0.00 0.00 0.00 100 947.7
20260905104904 0 0 27.4 40.2 0.00 0.00 0.00 100 947.7
20260905104504 0 0 20.9 29.0 0.00 0.00 0.00 100 947.7
20260905104102 0 0 20.9 30.6 0.00 0.00 0.00 100 947.8
20260905103702 0 0 22.5 37.0 0.00 0.00 0.00 100 947.8
20260905103302 0 0 17.7 24.1 0.00 0.00 0.00 100 947.8
20260905102902 0 0 22.5 32.2 0.00 0.00 0.00 100 947.5
20260905102502 0 0 29.0 40.2 0.00 0.00 0.00 100 947.4
20260905102100 0 0 16.1 22.5 0.00 0.00 0.00 100 947.4
20260905101700 0 0 22.5 35.4 0.00 0.00 0.00 100 947.5
20260905101300 0 0 22.5 32.2 0.00 0.00 0.00 100 947.5
20260905100859 0 0 20.9 30.6 0.00 0.00 0.00 100 947.6
20260905100459 0 0 22.5 38.6 0.00 0.00 0.00 100 947.6
20260905100057 0 0 20.9 32.2 0.00 0.00 0.00 100 947.6
20260905095657 0 0 14.5 25.7 0.00 0.00 0.00 100 947.6
20260905095257 0 0 11.3 16.1 0.00 0.00 0.00 100 947.5
20260905094850 0 0 9.7 14.5 0.00 0.00 0.00 100 947.5
20260905094448 0 0 8.0 14.5 0.00 0.00 0.00 100 947.5
20260905094045 0 0 8.0 12.9 0.00 0.00 0.00 100 947.4
20260905093644 0 0 8.0 12.9 0.00 0.00 0.00 100 947.2
20260905093243 0 0 9.7 12.9 0.00 0.00 0.00 100 947.2
20260905092843 0 0 12.9 16.1 0.00 0.00 0.00 100 947.4
20260905092443 0 0 12.9 17.7 0.00 0.00 0.00 100 947.4
20260905092041 0 0 12.9 17.7 0.00 0.00 0.00 100 947.4
20260905091641 0 0 14.5 20.9 0.00 0.00 0.00 100 947.2
20260905091241 0 0 14.5 24.1 0.00 0.00 0.00 100 947.3
20260905090841 0 0 12.9 19.3 0.00 0.00 0.00 100 947.3
20260905090441 0 0 12.9 17.7 0.00 0.00 0.00 100 947.4
20260905090039 0 0 12.9 19.3 0.00 0.00 0.00 100 947.5
20260905085639 0 0 14.5 27.4 0.00 0.00 0.00 100 947.4
20260905085238 0 0 12.9 17.7 0.00 0.00 0.00 100 947.4
20260905084838 0 0 11.3 14.5 0.00 0.00 0.00 100 947.5
20260905084438 0 0 12.9 17.7 0.00 0.00 0.00 100 947.7
20260905084036 0 0 12.9 17.7 0.00 0.00 0.00 100 947.6
20260905083636 0 0 14.5 19.3 0.00 0.00 0.00 100 947.6
20260905083236 0 0 12.9 16.1 0.00 0.00 0.00 100 947.6
20260905082836 0 0 8.0 16.1 0.00 0.00 0.00 100 947.6
20260905082436 0 0 6.4 9.7 0.00 0.00 0.00 100 947.5
20260905082034 0 0 8.0 9.7 0.00 0.00 0.00 100 947.3
20260905081634 0 0 9.7 12.9 0.00 0.00 0.00 100 947.2
20260905081234 0 0 12.9 19.3 0.00 0.00 0.00 100 947.3
20260905080833 0 0 12.9 17.7 0.00 0.00 0.00 100 947.5
20260905080433 0 0 16.1 22.5 0.00 0.00 0.00 100 947.4
20260905080032 0 0 14.5 20.9 0.00 0.00 0.00 100 947.2
20260905075632 0 0 14.5 25.7 0.00 0.00 0.00 100 947.2
20260905075232 0 0 17.7 22.5 0.00 0.00 0.00 100 947.3
20260905074831 0 0 17.7 20.9 0.00 0.00 0.00 100 947.2
20260905074431 0 0 16.1 24.1 0.00 0.00 0.00 100 947.1
20260905074029 0 0 14.5 19.3 0.00 0.00 0.00 100 947.0
20260905073629 0 0 14.5 22.5 0.00 0.00 0.00 100 946.8
20260905073229 0 0 19.3 29.0 0.00 0.00 0.00 100 946.8
20260905072746 0 0 14.5 16.1 0.00 0.00 0.00 100 947.0
20260905072137 0 0 16.1 19.3 0.00 0.00 0.00 100 947.2
20260905071241 0 0 16.1 24.1 0.00 0.00 0.00 100 947.2
20260905070841 0 0 16.1 22.5 0.00 0.00 0.00 100 947.2
20260905070441 0 0 14.5 17.7 0.00 0.00 0.00 100 947.3
20260905070010 0 0 14.5 19.3 0.00 0.00 0.00 100 947.0
20260905065518 0 0 16.1 20.9 0.00 0.00 0.00 100 947.1
20260905065013 0 0 19.3 24.1 0.00 0.00 0.00 100 947.3
20260905064202 0 0 20.9 33.8 0.00 0.00 0.00 100 947.1
20260905063803 0 0 20.9 30.6 0.00 0.00 0.00 100 947.1
20260905062705 0 0 16.1 17.7 0.00 0.00 0.00 100 946.9
20260905062205 0 0 17.7 24.1 0.00 0.00 0.00 100 946.9
20260905061606 0 0 17.7 19.3 0.00 0.00 0.00 100 947.0